When you browse on this site, cookies collect data to enhance your experience and personalize the content and advertising you see.
Visit our Privacy Policy to learn more. By continuing to use the site, you agree to this use of cookies and data.

Hourly Weather Kitzbuhel

Today, 5 August, Wednesday

Time Temperature Precipitation Wind Pressure Humidity
00:00 +8°C° 0 mm 0 mps 678 mmHg 96%
01:00 +7°C° 0 mm 0 mps 677 mmHg 95%
02:00 +7°C° 0 mm 0 mps 677 mmHg 95%
03:00 +7°C° 0 mm 0 mps 677 mmHg 95%
04:00 +6°C° 0 mm 0 mps 677 mmHg 95%
05:00 +7°C° 0 mm 0 mps 678 mmHg 94%
06:00 +8°C° 0 mm 0 mps 678 mmHg 93%
07:00 +9°C° 0 mm 0 mps 678 mmHg 92%
08:00 +11°C° 0 mm 0 mps 678 mmHg 83%
09:00 +14°C° 0 mm 1 mps 679 mmHg 75%
10:00 +16°C° 0 mm 1 mps 679 mmHg 66%
11:00 +18°C° 0 mm 1 mps 679 mmHg 63%
12:00 +19°C° 0 mm 1 mps 679 mmHg 61%
13:00 +18°C° 0 mm 2 mps 679 mmHg 58%
14:00 +19°C° 0 mm 2 mps 679 mmHg 59%
15:00 +19°C° 0 mm 2 mps 679 mmHg 60%
16:00 +19°C° 0 mm 2 mps 679 mmHg 60%
17:00 +19°C° 0 mm 1 mps 678 mmHg 69%
18:00 +16°C° 0 mm 1 mps 678 mmHg 78%
19:00 +15°C° 0 mm 1 mps 678 mmHg 87%
20:00 +13°C° 0 mm 1 mps 678 mmHg 90%
21:00 +12°C° 0 mm 1 mps 678 mmHg 92%
22:00 +11°C° 0 mm 1 mps 678 mmHg 95%
23:00 +11°C° 0 mm 1 mps 678 mmHg 95%

Tomorrow, 6 August, Thursday

Time Temperature Precipitation Wind Pressure Humidity
00:00 +11°C° 0 mm 1 mps 678 mmHg 95%
01:00 +10°C° 0 mm 1 mps 678 mmHg 95%
02:00 +10°C° 0 mm 1 mps 678 mmHg 94%
03:00 +10°C° 0 mm 1 mps 678 mmHg 94%
04:00 +10°C° 0 mm 1 mps 678 mmHg 94%
05:00 +11°C° 0 mm 0 mps 679 mmHg 89%
06:00 +12°C° 0 mm 0 mps 679 mmHg 85%
07:00 +14°C° 0 mm 0 mps 680 mmHg 81%
08:00 +16°C° 0 mm 0 mps 680 mmHg 73%
09:00 +20°C° 0 mm 1 mps 681 mmHg 65%
10:00 +23°C° 0 mm 1 mps 681 mmHg 58%
11:00 +23°C° 0 mm 2 mps 681 mmHg 56%
12:00 +24°C° 0 mm 2 mps 681 mmHg 55%
13:00 +25°C° 0 mm 2 mps 681 mmHg 53%
14:00 +25°C° 0.2 mm 2 mps 681 mmHg 58%
15:00 +24°C° 0.2 mm 2 mps 681 mmHg 64%
16:00 +24°C° 0.2 mm 2 mps 681 mmHg 69%
17:00 +21°C° 0.4 mm 2 mps 681 mmHg 77%
18:00 +21°C° 0.4 mm 1 mps 681 mmHg 85%
19:00 +19°C° 0.4 mm 1 mps 680 mmHg 94%
20:00 +18°C° 0.3 mm 1 mps 681 mmHg 95%
21:00 +16°C° 0.3 mm 0 mps 681 mmHg 95%
22:00 +15°C° 0.3 mm 0 mps 681 mmHg 96%
23:00 +14°C° 0 mm 0 mps 681 mmHg 96%

Day after tomorrow, 7 August, Friday

Time Temperature Precipitation Wind Pressure Humidity
00:00 +15°C° 0 mm 1 mps 681 mmHg 96%
01:00 +15°C° 0 mm 1 mps 681 mmHg 95%
02:00 +14°C° 0 mm 1 mps 681 mmHg 95%
03:00 +14°C° 0 mm 1 mps 681 mmHg 95%
04:00 +14°C° 0 mm 1 mps 680 mmHg 94%
05:00 +15°C° 0 mm 1 mps 681 mmHg 92%
06:00 +15°C° 0 mm 0 mps 681 mmHg 90%
07:00 +17°C° 0 mm 0 mps 682 mmHg 88%
08:00 +19°C° 0 mm 0 mps 682 mmHg 79%
09:00 +23°C° 0 mm 1 mps 682 mmHg 69%
10:00 +25°C° 0 mm 1 mps 683 mmHg 60%
11:00 +26°C° 0 mm 1 mps 683 mmHg 56%
12:00 +27°C° 0 mm 1 mps 683 mmHg 52%
13:00 +28°C° 0 mm 2 mps 683 mmHg 49%
14:00 +27°C° 0.1 mm 2 mps 682 mmHg 53%
15:00 +27°C° 0.1 mm 2 mps 682 mmHg 57%
16:00 +26°C° 0.1 mm 2 mps 682 mmHg 61%
17:00 +25°C° 0.3 mm 1 mps 682 mmHg 70%
18:00 +23°C° 0.3 mm 1 mps 681 mmHg 80%
19:00 +19°C° 0.3 mm 0 mps 681 mmHg 89%
20:00 +20°C° 0 mm 1 mps 681 mmHg 90%
21:00 +19°C° 0 mm 1 mps 681 mmHg 90%
22:00 +18°C° 0 mm 1 mps 681 mmHg 91%
23:00 +16°C° 0 mm 1 mps 681 mmHg 90%

8 August, Saturday

Time Temperature Precipitation Wind Pressure Humidity
00:00 +16°C° 0 mm 2 mps 681 mmHg 90%
01:00 +15°C° 0 mm 2 mps 681 mmHg 89%
02:00 +15°C° 0 mm 1 mps 681 mmHg 89%
03:00 +15°C° 0 mm 1 mps 680 mmHg 89%
04:00 +15°C° 0 mm 1 mps 680 mmHg 89%
05:00 +16°C° 0 mm 1 mps 681 mmHg 86%
06:00 +18°C° 0 mm 1 mps 681 mmHg 84%
07:00 +17°C° 0 mm 0 mps 681 mmHg 82%
08:00 +22°C° 0 mm 1 mps 682 mmHg 72%
09:00 +24°C° 0 mm 1 mps 682 mmHg 63%
10:00 +26°C° 0 mm 1 mps 683 mmHg 54%
11:00 +27°C° 0 mm 1 mps 683 mmHg 50%
12:00 +28°C° 0 mm 1 mps 682 mmHg 47%
13:00 +28°C° 0 mm 2 mps 682 mmHg 43%
14:00 +28°C° 0 mm 2 mps 682 mmHg 46%
15:00 +28°C° 0 mm 2 mps 682 mmHg 49%
16:00 +27°C° 0 mm 2 mps 681 mmHg 52%
17:00 +25°C° 0.3 mm 2 mps 681 mmHg 65%
18:00 +23°C° 0.3 mm 1 mps 681 mmHg 78%
19:00 +21°C° 0.3 mm 1 mps 681 mmHg 90%
20:00 +20°C° 0 mm 1 mps 681 mmHg 91%
21:00 +19°C° 0 mm 1 mps 681 mmHg 92%
22:00 +18°C° 0 mm 1 mps 681 mmHg 93%
23:00 +16°C° 0 mm 1 mps 680 mmHg 93%

9 August, Sunday

Time Temperature Precipitation Wind Pressure Humidity
00:00 +16°C° 0 mm 1 mps 680 mmHg 93%
01:00 +15°C° 0 mm 1 mps 680 mmHg 92%
02:00 +15°C° 0 mm 1 mps 680 mmHg 92%
03:00 +15°C° 0 mm 1 mps 679 mmHg 92%
04:00 +15°C° 0 mm 1 mps 679 mmHg 92%
05:00 +16°C° 0 mm 1 mps 679 mmHg 89%
06:00 +18°C° 0 mm 1 mps 680 mmHg 87%
07:00 +17°C° 0 mm 0 mps 680 mmHg 85%
08:00 +22°C° 0 mm 1 mps 681 mmHg 74%
09:00 +24°C° 0 mm 1 mps 681 mmHg 63%
10:00 +27°C° 0 mm 1 mps 681 mmHg 53%
11:00 +27°C° 0 mm 1 mps 681 mmHg 49%
12:00 +28°C° 0 mm 1 mps 681 mmHg 45%
13:00 +28°C° 0 mm 2 mps 681 mmHg 41%
14:00 +28°C° 0 mm 2 mps 681 mmHg 44%
15:00 +28°C° 0 mm 2 mps 680 mmHg 47%
16:00 +27°C° 0 mm 2 mps 680 mmHg 49%
17:00 +25°C° 0.2 mm 2 mps 680 mmHg 62%
18:00 +23°C° 0.2 mm 1 mps 679 mmHg 75%
19:00 +21°C° 0.2 mm 1 mps 679 mmHg 88%
20:00 +20°C° 0 mm 1 mps 679 mmHg 89%
21:00 +19°C° 0 mm 1 mps 679 mmHg 91%
22:00 +18°C° 0 mm 1 mps 679 mmHg 92%
23:00 +18°C° 0 mm 1 mps 679 mmHg 91%

10 August, Monday

Time Temperature Precipitation Wind Pressure Humidity
00:00 +16°C° 0 mm 1 mps 679 mmHg 91%
01:00 +16°C° 0 mm 1 mps 678 mmHg 91%
02:00 +16°C° 0 mm 1 mps 678 mmHg 90%
03:00 +15°C° 0 mm 1 mps 678 mmHg 90%
04:00 +15°C° 0 mm 1 mps 678 mmHg 90%
05:00 +18°C° 0 mm 1 mps 678 mmHg 87%
06:00 +19°C° 0 mm 1 mps 679 mmHg 84%
07:00 +20°C° 0 mm 1 mps 679 mmHg 81%
08:00 +23°C° 0 mm 1 mps 679 mmHg 72%
09:00 +25°C° 0 mm 1 mps 680 mmHg 62%
10:00 +27°C° 0 mm 1 mps 680 mmHg 53%
11:00 +28°C° 0 mm 1 mps 680 mmHg 49%
12:00 +29°C° 0 mm 1 mps 680 mmHg 45%
13:00 +29°C° 0 mm 2 mps 680 mmHg 42%
14:00 +29°C° 0.1 mm 2 mps 680 mmHg 46%
15:00 +28°C° 0.1 mm 2 mps 680 mmHg 50%
16:00 +28°C° 0.1 mm 2 mps 679 mmHg 55%
17:00 +25°C° 0.7 mm 2 mps 679 mmHg 66%
18:00 +23°C° 0.7 mm 1 mps 679 mmHg 78%
19:00 +19°C° 0.7 mm 0 mps 679 mmHg 90%
20:00 +20°C° 0.1 mm 1 mps 679 mmHg 90%
21:00 +19°C° 0.1 mm 1 mps 679 mmHg 90%
22:00 +18°C° 0.1 mm 1 mps 679 mmHg 90%
23:00 +18°C° 0 mm 1 mps 679 mmHg 90%
Show more